Location: Te Maire Creek
(41.1333°S, 175.9167°E)
Time: 23:15:31
(UTC+00:00)

Cosmos 2322 Rocket - Pass Details

Date: 19 May 2024
Orbit: 832 x 850 km, 71.0° (Epoch: 22 June)

Event Time Altitude Azimuth Distance (km) Brightness Sun altitude
Rises 17:35:47 0° 341° (NNW) 3,407 5.3 -19.8°
Reaches altitude 10° 17:38:13 10° 341° (NNW) 2,480 4.5 -19.4°
Maximum altitude 17:43:56 84° 68° (ENE) 870 2.3 -18.3°
Drops below altitude 10° 17:49:43 10° 155° (SSE) 2,508 4.8 -17.2°
Sets 17:52:11 0° 155° (SSE) 3,449 5.5 -16.8°
